FREGAT R/B, 40891

Orbit data source: Space-Track

FREGAT R/B, 40891 is space debris originally from a launch on Fri, 11 Sep 2015 UTC launched from the French Guiana (FRGUI). Debris objects in space refer to the collection of defunct objects orbiting the Earth. Examples of debris include non-operational satellites, rocket bodies, and fragments generated from explosions, collisions, or faulty payload assembly.

Loading next visibility...
Identifier
40891, 2015-045C
Orbit
Active
Last TLE update
3 days ago
Origin
Manufacturer
Lavochkin
Mission
Spacecraft
Bus & Motor
FREGAT, Unknown motor
Mass
1,050 kg wet, 1,050 kg dry
Launch date (UTC)
2015-09-11 (10 years ago)
Launch vehicle
Unknown
Launch site
French Guiana (FRGUI)
Object type
Payload
Rocket body
Debris
Shape & HBR
Irr, 3.3 m
Radar Cross Section
11.055 m²

Expand to show TLE details & history

TLE from 3 days ago
0 FREGAT R/B
1 40891U 15045C   25125.82113281 -.00000044  00000-0  00000-0 0  9997
2 40891  54.9540 235.8082 0027087 229.5251 130.2312  1.67827750 59165
Epoch: 2025-05-05T19:42Z
Definitive object data (Epoch: 2025-05-05T19:42:25.874Z)
Latitude
-0.00005°
Longitude
76.2575°
Altitude
23,585.259 km
Speed
3.644 km/s
True Right ascension
15h 43m 10s
True Declination
0° 00' 00"
Sunlit
Object was in daylight at TLE epoch
Visualization TLE readout
Latitude
-49.69496°
Longitude
-48.26513°
Altitude
23,473.903 km
Speed
3.659 km/s
Apparent Right ascension
06h 27m 32s
Apparent Declination
-53° 42' 29"
Sunlit
Object is in daylight
Visualization observer readout
Local Sidereal Time
13:13:37
Azimuth
226.92° WSW
Elevation
-37.434°
Doppler factor
1
Orbital elements
Apogee altitude
23,613.552 km
Perigee altitude
23,451.514 km
Semi-major axis
29,910.67 km
Eccentricity
0.0027087
Inclination
54.954°
RAAN
235.8082°
Arg. of periapsis
229.5251°
True anomaly
130.46765°
Mean anomaly
130.2312°
Eccentric anomaly
130.34948°
Mean motion
0.41957 °/min
BSTAR
Unknown
Orbital period
858.02 mins
Loading maneuver chart data...
Loading SW <> Apogee altitude chart data...
Loading historical data...
Loading historical data...
Loading historical data...
Loading historical data...
Loading historical data...
Loading historical data...
Loading historical data...
Other satellites on launch #45 in the year 2015 (2015-09-11 UTC)

FREGAT R/B Visibility forecast

Observer location: undefined°, undefined°

Span
Click to sort rows by Start time (UTC) header in descending order
Start Az.
Max El. time (UTC)
Max El. Az.
Max El.
End time (UTC)
End Az.
537 mins2025-05-09 08:26:00.289Z209.535° SW2025-05-09 12:31:00.289Z336.91° NNW43.621°2025-05-09 17:23:00.289Z134.615° SE
|